Showing default

COSMOS 80, 1570

Orbit data source: Space-Track

COSMOS 80, 1570 is a payload satellite owned by OKB-10 (CIS) in LEO that was launched on Fri, 03 Sep 1965 UTC via a KOSMOS 65S3 launch vehicle from the Tyuratam Missile And Space Complex (TTMTR). Payload-class satellites include a variety of spacecraft equipped with specific instruments for various scientific and technological missions. These include communications satellites like Starlink; space stations such as the ISS; scientific satellites like the Hubble; Earth observation satellites from companies like Planet Labs, Umbra, and HawkEye 360; GPS; miniature CubeSats for education and research; and military/defense satellites.

Loading next visibility...
Identifier
1570, 1965-070A
Orbit
LEO
Last TLE update
11 hours ago
Origin
Manufacturer
OKB-10
Mission
Defense Communications
Bus & Motor
STRELA-1 11F610, Unknown motor
Mass
50 kg wet, 50 kg dry
Launch date (UTC)
1965-09-03 (60 years ago)
Launch vehicle
KOSMOS 65S3
Launch site
Tyuratam Missile And Space Complex (TTMTR)
Object type
Payload
Rocket body
Debris
Shape & HBR
Poly, 0.8 m
Radar Cross Section
0.731 m², Medium (>0.1 m² and < 1m²)

Expand to show TLE details & history

TLE from 11 hours ago
0 COSMOS 80
1 01570U 65070A   25167.34121696 -.00000094  00000-0  15608-4 0  9992
2 01570  56.0577  23.2243 0100933 184.8209 356.6229 12.52793800735509
Epoch: 2025-06-16T08:11Z
TLE epoch observation values (Epoch: 2025-06-16T08:11:21.145Z)
Latitude
-1.2227°
Longitude
176.35184°
Altitude
1,375.153 km
Speed
7.208 km/s
True Right ascension
13h 36m 10s
True Declination
-1° 12' 57"
Sunlit
Object was in daylight at epoch
Visualization orbit readout
Latitude
26.35301°
Longitude
154.87803°
Altitude
1,391.411 km
Speed
7.196 km/s
Apparent Right ascension
14h 31m 00s
Apparent Declination
-4° 17' 54"
Sunlit
Object is in daylight
Visualization observer readout
Local Sidereal Time
06:11:04
Azimuth
69.26° E
Elevation
-29.118°
Doppler factor
1
Orbital elements
Apogee altitude
1,531.692 km
Perigee altitude
1,373.615 km
Semi-major axis
7,830.791 km
Eccentricity
0.01009
Inclination
56.0577°
RAAN
23.2243°
Arg. of periapsis
184.8209°
True anomaly
Unknown
Mean anomaly
356.6229°
Eccentric anomaly
Unknown
Mean motion
3.13209 °/min
Orbital period
114.94 mins
BSTAR
0.000015608
Loading maneuver chart data...
Loading SW <> Apogee altitude chart data...
Loading historical data...
Loading historical data...
Loading historical data...
Loading historical data...
Loading historical data...
Loading historical data...
Loading historical data...
Other satellites on launch #70 in the year 1965 (1965-09-03 UTC)

COSMOS 80 Visibility forecast

Observer location: undefined°, undefined°

Span
Click to sort rows by Start time (UTC) header in descending order
Start Az.
Max El. time (UTC)
Max El. Az.
Max El.
End time (UTC)
End Az.
14 mins2025-06-16 21:01:16.073Z309.748° NW2025-06-16 21:08:16.073Z4.304° NNE25.166°2025-06-16 21:15:16.073Z60.084° ENE
15 mins2025-06-16 23:03:16.073Z321.28° NNW2025-06-16 23:10:16.073Z24.603° NE36.452°2025-06-16 23:18:16.073Z103.116° ESE
14 mins2025-06-17 01:04:16.073Z305.615° NW2025-06-17 01:11:16.073Z224.19° SW40.288°2025-06-17 01:18:16.073Z158.514° S
15 mins2025-06-17 15:54:16.073Z197.459° SSW2025-06-17 16:01:16.073Z127.165° SE39.828°2025-06-17 16:09:16.073Z53.055° ENE
16 mins2025-06-17 17:54:16.073Z255.846° W2025-06-17 18:01:16.073Z319.019° NNW37.777°2025-06-17 18:10:16.073Z41.796° NE
|